This is the latest recevied weather packets stored in our database for station/object OE3PDB-4. If no packets are shown the sender has not sent any weather packets the latest 10 day(s).
| Time | Temp. | Humidity | Pressure | Rain* | Wind** | Luminosity | Snow |
|---|---|---|---|---|---|---|---|
| 1777608609 | 3.89° C | 59% | 1028 hPa | 0 mm | - | - | - |
| 1777608009 | 3.89° C | 59% | 1028.2 hPa | 0 mm | - | - | - |
| 1777607409 | 3.89° C | 59% | 1027.9 hPa | 0 mm | - | - | - |
| 1777606810 | 3.89° C | 58% | 1027.8 hPa | 0 mm | - | - | - |
| 1777606209 | 3.89° C | 58% | 1027.7 hPa | 0 mm | - | - | - |
| 1777605609 | 3.89° C | 57% | 1027.7 hPa | 0 mm | - | - | - |
| 1777605009 | 3.89° C | 57% | 1027.8 hPa | 0 mm | - | - | - |
| 1777604410 | 3.89° C | 57% | 1027.8 hPa | 0 mm | - | - | - |
| 1777603809 | 3.89° C | 57% | 1027.9 hPa | 0 mm | - | - | - |
| 1777603210 | 3.89° C | 56% | 1027.9 hPa | 0 mm | - | - | - |
| 1777602610 | 4.44° C | 56% | 1027.8 hPa | 0 mm | - | - | - |
| 1777602010 | 4.44° C | 55% | 1027.9 hPa | 0 mm | - | - | - |
| 1777601410 | 4.44° C | 56% | 1027.9 hPa | 0 mm | - | - | - |
| 1777600810 | 4.44° C | 56% | 1028 hPa | 0 mm | - | - | - |
| 1777586410 | 7.22° C | 46% | 1028 hPa | 0 mm | - | - | - |
| 1777585210 | 7.78° C | 45% | 1027.8 hPa | 0 mm | - | - | - |
| 1777584610 | 7.78° C | 45% | 1027.8 hPa | 0 mm | - | - | - |
| 1777584010 | 7.78° C | 44% | 1027.8 hPa | 0 mm | - | - | - |
| 1777583410 | 8.33° C | 43% | 1027.7 hPa | 0 mm | - | - | - |
| 1777582810 | 8.33° C | 43% | 1027.7 hPa | 0 mm | - | - | - |
| 1777581010 | 9.44° C | 40% | 1027.8 hPa | 0 mm | - | - | - |
| 1777580410 | 9.44° C | 40% | 1027.7 hPa | 0 mm | - | - | - |
| 1777579810 | 9.44° C | 39% | 1027.7 hPa | 0 mm | - | - | - |
| 1777577410 | 11.11° C | 36% | 1027.4 hPa | 0 mm | - | - | - |
| 1777576810 | 11.11° C | 36% | 1027.4 hPa | 0 mm | - | - | - |
* Rain latest hour (hover to see other rain measurements)
** Current wind speed in m/s (hover to see current wind gust speed)